User: anonymous   Login
Location: Armidale
(30.5016°S, 151.6662°E)
Time: 17:12:25
(UTC+10:00)
Language:

First-Move - Orbit

View from above orbital plane
View from above orbital plane
View from above satellite
View from above satellite

Ground track
Ground track

The orbit data is extracted from the following two-line orbital elements,

1 39439U 13066Z   21209.92168668  .00000891  00000-0  11290-3 0  9998
2 39439  97.5998 193.6577 0065405  24.2078 336.2186 14.82676928414098
Epoch (UTC): 28 July 2021 22:07:13
Eccentricity: 0.0065405
inclination: 97.5998°
perigee height: 575 km
apogee height: 666 km
right ascension of ascending node: 193.6577°
argument of perigee: 24.2078°
revolutions per day: 14.82676928
mean anomaly at epoch: 336.2186°
orbit number at epoch: 41409

The dashed part of the orbit path shows where the satellite is in the earth's shadow,  

DLR